DW8052 Weather Reports


time (UTC)temp
C
wind
direction
speed
KPH
gust
KPH
rain 1hr
cm
rain 24hr
cm
rain mn
cm
humidity
%
barometer
mb
20260902092706 23 281 12.9 14.5 0.00 0.00 0.00 36 1013.7
20260902092206 23 270 11.3 14.5 0.00 0.00 0.00 36 1013.7
20260902091706 23 278 12.9 16.1 0.00 0.00 0.00 35 1013.6
20260902090706 23 288 12.9 16.1 0.00 0.00 0.00 36 1013.4
20260902090206 23 291 12.9 14.5 0.00 0.00 0.00 36 1013.4
20260902085706 22 302 12.9 16.1 0.00 0.00 0.00 37 1013.5
20260902085206 22 328 11.3 16.1 0.00 0.00 0.00 37 1013.4
20260902084706 23 301 8.0 9.7 0.00 0.00 0.00 36 1013.3
20260902084206 23 275 8.0 11.3 0.00 0.00 0.00 36 1013.2
20260902083706 23 267 11.3 12.9 0.00 0.00 0.00 36 1013.2
20260902083206 23 258 11.3 12.9 0.00 0.00 0.00 36 1013.2
20260902082206 23 265 11.3 14.5 0.00 0.00 0.00 35 1013.0
20260902081706 23 260 11.3 14.5 0.00 0.00 0.00 35 1013.0
20260902081206 23 260 12.9 16.1 0.00 0.00 0.00 34 1013.0
20260902080706 24 264 12.9 16.1 0.00 0.00 0.00 33 1013.3
20260902080206 24 262 12.9 19.3 0.00 0.00 0.00 33 1013.0
20260902073706 25 264 12.9 16.1 0.00 0.00 0.00 32 1012.6
20260902073206 25 264 12.9 16.1 0.00 0.00 0.00 32 1012.5
20260902072706 25 262 12.9 16.1 0.00 0.00 0.00 32 1012.7
20260902071706 25 263 14.5 16.1 0.00 0.00 0.00 31 1012.3
20260902071206 25 267 16.1 22.5 0.00 0.00 0.00 30 1012.4
20260902070705 25 264 16.1 24.1 0.00 0.00 0.00 30 1012.3
20260902070206 26 265 16.1 27.4 0.00 0.00 0.00 29 1012.4
20260902065706 26 273 22.5 32.2 0.00 0.00 0.00 29 1012.3
20260902065206 26 254 22.5 32.2 0.00 0.00 0.00 28 1012.2
20260902064205 26 268 20.9 33.8 0.00 0.00 0.00 28 1012.2
20260902063706 26 271 27.4 35.4 0.00 0.00 0.00 28 1012.3
20260902063206 26 261 32.2 41.8 0.00 0.00 0.00 28 1012.1
20260902062205 26 256 24.1 33.8 0.00 0.00 0.00 28 1012.2
20260902060706 26 274 17.7 27.4 0.00 0.00 0.00 28 1012.3
20260902060205 26 279 24.1 32.2 0.00 0.00 0.00 27 1012.2
20260902055705 26 270 20.9 29.0 0.00 0.00 0.00 27 1012.1
20260902055205 26 264 22.5 35.4 0.00 0.00 0.00 27 1012.0
20260902054705 26 281 20.9 32.2 0.00 0.00 0.00 28 1012.1
20260902054206 26 266 25.7 37.0 0.00 0.00 0.00 27 1012.1
20260902053705 26 276 27.4 40.2 0.00 0.00 0.00 27 1012.2
20260902053205 26 272 22.5 40.2 0.00 0.00 0.00 27 1012.1
20260902052706 26 246 22.5 35.4 0.00 0.00 0.00 27 1012.3
20260902052205 26 273 22.5 37.0 0.00 0.00 0.00 27 1012.3
20260902051706 26 271 16.1 27.4 0.00 0.00 0.00 27 1012.2
20260902051206 26 262 20.9 37.0 0.00 0.00 0.00 27 1012.1
20260902050706 26 277 29.0 38.6 0.00 0.00 0.00 27 1012.3
20260902050205 26 263 19.3 32.2 0.00 0.00 0.00 27 1012.1
20260902045706 26 248 19.3 32.2 0.00 0.00 0.00 27 1012.2
20260902045206 27 248 9.7 24.1 0.00 0.00 0.00 28 1012.1
20260902044705 26 234 12.9 19.3 0.00 0.00 0.00 29 1012.0
20260902043705 26 264 12.9 19.3 0.00 0.00 0.00 29 1012.1
20260902043205 26 241 12.9 19.3 0.00 0.00 0.00 28 1012.1
20260902042705 27 246 19.3 22.5 0.00 0.00 0.00 28 1012.1
20260902040705 26 269 20.9 29.0 0.00 0.00 0.00 29 1012.0
20260902040205 26 272 22.5 40.2 0.00 0.00 0.00 30 1012.1
20260902035706 26 296 16.1 32.2 0.00 0.00 0.00 30 1011.9
20260902035206 26 283 22.5 27.4 0.00 0.00 0.00 30 1012.1
20260902034205 25 297 22.5 38.6 0.00 0.00 0.00 29 1012.3
20260902033705 26 299 27.4 35.4 0.00 0.00 0.00 29 1012.3
20260902033205 26 267 14.5 20.9 0.00 0.00 0.00 30 1012.4
20260902032706 26 273 16.1 24.1 0.00 0.00 0.00 30 1012.5
20260902032205 26 289 25.7 32.2 0.00 0.00 0.00 29 1012.4
20260902031705 26 270 19.3 33.8 0.00 0.00 0.00 29 1012.6
20260902031205 26 287 11.3 27.4 0.00 0.00 0.00 30 1012.8
20260902030705 26 306 19.3 24.1 0.00 0.00 0.00 30 1013.0
20260902030206 26 327 19.3 32.2 0.00 0.00 0.00 30 1012.8
20260902025705 25 289 27.4 37.0 0.00 0.00 0.00 30 1012.9
20260902025205 25 316 20.9 32.2 0.00 0.00 0.00 30 1013.0
20260902024706 26 292 19.3 25.7 0.00 0.00 0.00 29 1013.2
20260902024205 26 267 22.5 33.8 0.00 0.00 0.00 29 1013.3
20260902023706 26 280 25.7 35.4 0.00 0.00 0.00 30 1013.2
20260902022705 26 280 14.5 38.6 0.00 0.00 0.00 31 1013.4
20260902022205 25 274 25.7 37.0 0.00 0.00 0.00 31 1013.5
20260902021205 25 301 19.3 35.4 0.00 0.00 0.00 32 1013.9
20260902020705 25 287 24.1 35.4 0.00 0.00 0.00 32 1013.9
20260902020205 25 297 27.4 35.4 0.00 0.00 0.00 32 1014.2
20260902015705 25 306 16.1 32.2 0.00 0.00 0.00 33 1014.1
20260902015205 25 300 19.3 25.7 0.00 0.00 0.00 33 1014.1
20260902014705 25 318 8.0 22.5 0.00 0.00 0.00 36 1014.2
20260902014205 25 339 16.1 22.5 0.00 0.00 0.00 37 1014.6
20260902013706 24 303 14.5 27.4 0.00 0.00 0.00 36 1014.4
20260902013205 24 343 12.9 24.1 0.00 0.00 0.00 37 1014.6
20260902012705 24 316 20.9 33.8 0.00 0.00 0.00 37 1014.8
20260902012205 24 314 22.5 32.2 0.00 0.00 0.00 37 1015.0
20260902011705 24 301 20.9 32.2 0.00 0.00 0.00 38 1015.1
20260902011205 23 313 19.3 29.0 0.00 0.00 0.00 38 1015.2
20260902010705 23 303 20.9 27.4 0.00 0.00 0.00 38 1015.3
20260902010205 23 298 19.3 27.4 0.00 0.00 0.00 39 1015.4
20260902005705 23 316 19.3 29.0 0.00 0.00 0.00 39 1015.4
20260902005205 23 327 22.5 32.2 0.00 0.00 0.00 40 1015.5
20260902004705 23 308 22.5 33.8 0.00 0.00 0.00 40 1015.4
20260902004206 23 301 25.7 33.8 0.00 0.00 0.00 40 1015.6
20260902003705 22 316 24.1 32.2 0.00 0.00 0.00 41 1015.7
20260902003205 22 320 20.9 29.0 0.00 0.00 0.00 41 1015.7
20260902002705 22 314 25.7 35.4 0.00 0.00 0.00 42 1015.9
20260902002205 22 315 33.8 38.6 0.00 0.00 0.00 42 1015.8
20260902001704 22 318 14.5 33.8 0.00 0.00 0.00 42 1015.7
20260902001205 22 321 20.9 32.2 0.00 0.00 0.00 42 1015.8
20260902000705 22 326 14.5 27.4 0.00 0.00 0.00 43 1016.1
20260901235705 22 319 29.0 38.6 0.00 0.00 0.00 41 1016.0
20260901235205 22 319 27.4 37.0 0.00 0.00 0.00 41 1016.0
20260901234705 22 322 22.5 32.2 0.00 0.00 0.00 42 1016.1
20260901234205 21 332 22.5 32.2 0.00 0.00 0.00 44 1016.1
20260901232705 21 329 16.1 29.0 0.00 0.00 0.00 46 1016.4
20260901232205 20 333 19.3 32.2 0.00 0.00 0.00 47 1016.5
20260901231205 20 328 16.1 20.9 0.00 0.00 0.00 50 1016.6
20260901230704 20 331 16.1 19.3 0.00 0.00 0.00 49 1016.5
20260901230204 20 335 12.9 19.3 0.00 0.00 0.00 49 1016.6
20260901225705 20 324 14.5 20.9 0.00 0.00 0.00 49 1016.5
20260901225205 19 330 17.7 22.5 0.00 0.00 0.00 50 1016.7
20260901224705 19 322 19.3 24.1 0.00 0.00 0.00 50 1016.6
20260901224204 19 323 19.3 22.5 0.00 0.00 0.00 50 1016.5
20260901223704 19 321 19.3 22.5 0.00 0.00 0.00 50 1016.6
20260901223206 18 326 16.1 22.5 0.00 0.00 0.00 51 1016.8
20260901222705 18 326 17.7 22.5 0.00 0.00 0.00 51 1016.6
20260901221704 18 328 16.1 22.5 0.00 0.00 0.00 52 1016.7
20260901221205 18 323 16.1 20.9 0.00 0.00 0.00 52 1016.8
20260901220704 18 328 16.1 20.9 0.00 0.00 0.00 52 1016.8
20260901220205 18 324 14.5 19.3 0.00 0.00 0.00 52 1016.8
20260901215205 18 326 16.1 20.9 0.00 0.00 0.00 53 1016.9
20260901214204 18 327 14.5 19.3 0.00 0.00 0.00 53 1016.8
20260901213705 17 321 16.1 19.3 0.00 0.00 0.00 53 1016.8
20260901213205 17 322 16.1 20.9 0.00 0.00 0.00 53 1017.0
20260901212704 17 318 14.5 20.9 0.00 0.00 0.00 53 1016.9
20260901212204 17 315 17.7 20.9 0.00 0.00 0.00 53 1016.9
20260901211704 17 318 17.7 22.5 0.00 0.00 0.00 53 1016.8
20260901211205 17 315 17.7 22.5 0.00 0.00 0.00 53 1016.5
20260901210705 17 316 19.3 20.9 0.00 0.00 0.00 53 1016.7
20260901210205 17 317 19.3 22.5 0.00 0.00 0.00 53 1016.8
20260901204705 17 305 20.9 24.1 0.00 0.00 0.00 53 1016.7
20260901204204 17 306 19.3 20.9 0.00 0.00 0.00 53 1016.7
20260901203704 18 312 16.1 20.9 0.00 0.00 0.00 52 1016.7
20260901203205 18 314 20.9 22.5 0.00 0.00 0.00 52 1016.9
20260901202705 18 306 20.9 22.5 0.00 0.00 0.00 52 1016.9
20260901202204 17 303 19.3 20.9 0.00 0.00 0.00 53 1016.7
20260901200704 17 282 19.3 22.5 0.00 0.00 0.00 57 1017.1
20260901200204 17 275 14.5 16.1 0.00 0.00 0.00 58 1016.8
20260901193705 17 248 16.1 20.9 0.00 0.00 0.00 59 1016.7
20260901193205 17 311 14.5 16.1 0.00 0.00 0.00 59 1016.3
20260901192705 17 329 11.3 19.3 0.00 0.00 0.00 58 1016.1
20260901192204 17 332 11.3 19.3 0.00 0.00 0.00 58 1016.2
20260901191705 17 329 14.5 16.1 0.00 0.00 0.00 58 1016.2
20260901191205 17 330 14.5 19.3 0.00 0.00 0.00 57 1016.1
20260901190705 17 337 11.3 19.3 0.00 0.00 0.00 59 1016.0
20260901190204 17 341 11.3 19.3 0.00 0.00 0.00 58 1016.1
20260901185704 17 350 14.5 19.3 0.00 0.00 0.00 57 1016.1
20260901184205 17 348 14.5 19.3 0.00 0.00 0.00 60 1015.9
20260901183704 17 352 14.5 19.3 0.00 0.00 0.00 60 1016.0
20260901183205 17 342 12.9 16.1 0.00 0.00 0.00 60 1015.9
20260901182704 17 343 12.9 16.1 0.00 0.00 0.00 61 1016.0
20260901181204 17 355 9.7 14.5 0.00 0.00 0.00 60 1015.7
20260901180704 16 1 9.7 14.5 0.00 0.00 0.00 60 1015.7
20260901175704 16 348 11.3 14.5 0.00 0.00 0.00 61 1015.7
20260901175204 17 347 8.0 14.5 0.00 0.00 0.00 61 1015.6
20260901174204 17 345 11.3 12.9 0.00 0.00 0.00 58 1015.6
20260901173704 16 343 11.3 12.9 0.00 0.00 0.00 56 1015.5
20260901173204 16 342 11.3 14.5 0.00 0.00 0.00 56 1015.5
20260901172704 17 337 11.3 12.9 0.00 0.00 0.00 55 1015.7
20260901172204 17 343 8.0 12.9 0.00 0.00 0.00 55 1015.8
20260901171704 17 352 9.7 11.3 0.00 0.00 0.00 54 1015.7
20260901170204 17 342 12.9 16.1 0.00 0.00 0.00 54 1015.9
20260901165221 17 327 16.1 19.3 0.00 0.00 0.00 53 1016.0
20260901164720 17 325 16.1 19.3 0.00 0.00 0.00 53 1016.0
20260901164221 17 322 16.1 19.3 0.00 0.00 0.00 52 1016.0
20260901163721 17 331 16.1 19.3 0.00 0.00 0.00 52 1016.1
20260901163221 17 331 14.5 16.1 0.00 0.00 0.00 52 1016.1
20260901162721 17 324 12.9 14.5 0.00 0.00 0.00 52 1016.5
20260901162220 17 324 11.3 12.9 0.00 0.00 0.00 52 1016.6
20260901161721 17 324 9.7 11.3 0.00 0.00 0.00 52 1016.5
20260901160221 18 324 9.7 12.9 0.00 0.00 0.00 52 1016.6
20260901155721 18 330 9.7 11.3 0.00 0.00 0.00 51 1016.6
20260901155221 18 334 8.0 9.7 0.00 0.00 0.00 51 1016.7
20260901154721 18 333 8.0 9.7 0.00 0.00 0.00 51 1017.0
20260901153721 18 341 8.0 11.3 0.00 0.00 0.00 51 1017.0
20260901153220 18 346 11.3 12.9 0.00 0.00 0.00 51 1017.0
20260901152721 18 346 11.3 14.5 0.00 0.00 0.00 51 1016.9
20260901152221 18 350 11.3 14.5 0.00 0.00 0.00 51 1017.1
20260901151721 18 353 11.3 12.9 0.00 0.00 0.00 51 1017.0
20260901151221 18 353 9.7 14.5 0.00 0.00 0.00 51 1017.0
20260901150721 18 357 9.7 14.5 0.00 0.00 0.00 51 1017.1
20260901150221 18 355 8.0 12.9 0.00 0.00 0.00 52 1017.1
20260901145720 18 1 9.7 12.9 0.00 0.00 0.00 52 1017.2
20260901145220 18 358 9.7 11.3 0.00 0.00 0.00 53 1017.3
20260901144721 18 347 8.0 14.5 0.00 0.00 0.00 52 1017.2
20260901143721 18 353 11.3 16.1 0.00 0.00 0.00 50 1017.2
20260901143221 18 345 11.3 14.5 0.00 0.00 0.00 49 1017.3
20260901142720 18 347 11.3 16.1 0.00 0.00 0.00 49 1017.2
20260901142220 18 338 11.3 14.5 0.00 0.00 0.00 49 1017.3
20260901141720 18 332 11.3 16.1 0.00 0.00 0.00 49 1017.2
20260901141221 18 333 12.9 14.5 0.00 0.00 0.00 49 1017.2
20260901140721 18 337 11.3 19.3 0.00 0.00 0.00 48 1017.3
20260901140220 18 328 16.1 19.3 0.00 0.00 0.00 48 1017.4
20260901135721 18 321 14.5 19.3 0.00 0.00 0.00 48 1017.4
20260901133721 18 333 9.7 12.9 0.00 0.00 0.00 49 1017.8
20260901133220 18 328 9.7 12.9 0.00 0.00 0.00 49 1017.7
20260901132221 18 341 9.7 12.9 0.00 0.00 0.00 48 1018.0
20260901131720 18 352 8.0 12.9 0.00 0.00 0.00 47 1017.8
20260901131220 18 0 11.3 14.5 0.00 0.00 0.00 47 1017.9
20260901130721 18 1 11.3 16.1 0.00 0.00 0.00 47 1018.1
20260901130221 18 3 11.3 16.1 0.00 0.00 0.00 46 1017.9
20260901125720 18 358 11.3 16.1 0.00 0.00 0.00 46 1017.9
20260901125221 19 1 11.3 14.5 0.00 0.00 0.00 46 1017.9
20260901124721 19 0 9.7 12.9 0.00 0.00 0.00 46 1018.2
20260901124221 19 351 9.7 14.5 0.00 0.00 0.00 46 1018.0
20260901123721 19 352 11.3 19.3 0.00 0.00 0.00 45 1018.0
20260901123221 19 346 14.5 19.3 0.00 0.00 0.00 46 1018.2
20260901122720 19 345 12.9 19.3 0.00 0.00 0.00 47 1018.3
20260901122221 19 341 16.1 19.3 0.00 0.00 0.00 48 1018.0
20260901121720 19 338 14.5 19.3 0.00 0.00 0.00 47 1018.3
20260901121221 20 343 14.5 20.9 0.00 0.00 0.00 46 1018.1
20260901120721 20 341 11.3 19.3 0.00 0.00 0.00 45 1018.1
20260901120221 20 349 16.1 20.9 0.00 0.00 0.00 45 1018.2
20260901115720 20 350 20.9 24.1 0.00 0.00 0.00 44 1018.2
20260901115220 20 348 19.3 24.1 0.00 0.00 0.00 43 1018.3
20260901114720 20 344 19.3 22.5 0.00 0.00 0.00 42 1018.3
20260901114220 20 332 20.9 27.4 0.00 0.00 0.00 42 1018.4
20260901113720 20 325 20.9 27.4 0.00 0.00 0.00 41 1018.7
20260901113220 20 323 20.9 24.1 0.00 0.00 0.00 41 1018.9
20260901112720 20 316 19.3 20.9 0.00 0.00 0.00 41 1019.0
20260901112220 20 321 17.7 22.5 0.00 0.00 0.00 40 1019.1
20260901111720 20 318 19.3 22.5 0.00 0.00 0.00 39 1019.2
20260901111220 20 307 19.3 20.9 0.00 0.00 0.00 39 1019.0
20260901110720 20 318 19.3 20.9 0.00 0.00 0.00 38 1019.1
20260901110220 21 310 19.3 24.1 0.00 0.00 0.00 38 1019.2
20260901105721 21 307 20.9 25.7 0.00 0.00 0.00 38 1019.2
20260901105220 21 307 22.5 24.1 0.00 0.00 0.00 38 1019.3
20260901104220 21 303 20.9 27.4 0.00 0.00 0.00 38 1019.2
20260901103220 21 301 20.9 25.7 0.00 0.00 0.00 38 1019.2
20260901102720 21 299 20.9 24.1 0.00 0.00 0.00 37 1019.3
20260901102220 21 301 19.3 22.5 0.00 0.00 0.00 36 1019.2
20260901101720 21 312 14.5 19.3 0.00 0.00 0.00 36 1019.3
20260901101220 21 323 11.3 16.1 0.00 0.00 0.00 35 1019.4
20260901100220 21 327 16.1 20.9 0.00 0.00 0.00 34 1019.4
20260901095720 21 311 19.3 25.7 0.00 0.00 0.00 34 1019.3
20260901095220 21 316 20.9 27.4 0.00 0.00 0.00 34 1019.4
20260901094720 21 307 20.9 24.1 0.00 0.00 0.00 34 1019.6
20260901094220 21 308 20.9 25.7 0.00 0.00 0.00 34 1019.5
20260901093720 21 307 20.9 25.7 0.00 0.00 0.00 34 1019.5
20260901093220 21 306 22.5 27.4 0.00 0.00 0.00 34 1019.4